Location: Newark
(37.3333°N, 6.0167°W)
Time: 12:13:33
(UTC+00:00)

ITUPSAT 1 - Visible Passes

Search period start: 07 December 2019 00:00
Search period end: 17 December 2019 00:00
Orbit: 701 x 713 km, 98.6° (Epoch: 07 December)

Date Brightness Start Highest point End Pass type
(mag) Time Alt. Az. Time Alt. Az. Time Alt. Az.
07 Dec ? 04:12:50 10° ESE 04:15:46 23° E 04:15:46 23° E visible
07 Dec ? 05:49:57 10° SSW 05:54:12 32° W 05:54:44 31° W visible
07 Dec ? 17:51:33 10° NNE 17:56:22 73° ESE 18:01:09 10° S visible
07 Dec ? 19:31:52 10° NW 19:33:31 12° WNW 19:35:09 10° W visible
08 Dec ? 04:55:55 10° SSE 05:00:30 67° E 05:00:30 67° E visible
08 Dec ? 06:37:40 10° WSW 06:38:49 11° W 06:39:29 11° W visible
08 Dec ? 18:36:05 10° N 18:40:31 39° WNW 18:44:58 10° SW visible
09 Dec ? 04:04:07 10° ESE 04:06:15 18° E 04:06:15 18° E visible
09 Dec ? 05:40:28 10° S 05:44:55 41° W 05:45:14 40° W visible
09 Dec ? 17:42:23 10° NNE 17:47:07 57° E 17:51:50 10° S visible
09 Dec ? 19:21:49 10° NNW 19:24:24 15° WNW 19:27:00 10° W visible
10 Dec ? 04:46:48 10° SSE 04:51:00 51° E 04:51:00 51° E visible
10 Dec ? 06:27:01 10° SW 06:29:29 14° W 06:29:59 14° W visible
10 Dec ? 18:26:43 10° N 18:31:20 49° WNW 18:35:57 10° SW visible
11 Dec ? 03:55:33 10° E 03:56:45 14° E 03:56:45 14° E visible
11 Dec ? 05:31:02 10° S 05:35:39 52° W 05:35:44 52° W visible
11 Dec ? 17:33:15 10° NNE 17:37:52 45° E 17:42:27 10° S visible
11 Dec ? 19:12:04 10° NNW 19:15:17 18° WNW 19:18:30 10° WSW visible
12 Dec ? 04:37:46 10° SE 04:41:30 39° E 04:41:30 39° E visible
12 Dec ? 06:16:58 10° SW 06:20:10 18° W 06:20:28 18° W visible
12 Dec ? 18:17:24 10° N 18:22:09 62° WNW 18:26:52 10° SSW visible
13 Dec ? 03:47:14 10° E 03:47:15 10° E 03:47:15 10° E visible
13 Dec ? 05:21:41 10° S 05:26:14 66° WSW 05:26:14 66° WSW visible
13 Dec ? 19:02:28 10° NNW 19:06:09 22° WNW 19:09:49 10° WSW visible
14 Dec ? 04:28:48 10° SE 04:32:01 30° E 04:32:01 30° E visible
14 Dec ? 06:07:09 10° SSW 06:10:51 22° W 06:11:00 22° W visible
14 Dec ? 18:08:07 10° N 18:12:56 78° WNW 18:17:43 10° SSW visible
15 Dec ? 05:12:24 10° SSE 05:16:45 74° S 05:16:45 74° S visible
15 Dec ? 18:52:57 10° N 18:57:00 27° WNW 19:01:02 10° SW visible
16 Dec ? 04:19:55 10° SE 04:22:32 23° E 04:22:32 23° E visible
16 Dec ? 05:57:29 10° SSW 06:01:31 28° W 06:01:31 28° W visible
16 Dec ? 17:58:53 10° NNE 18:03:42 83° ESE 18:08:31 10° SSW visible
16 Dec ? 19:40:19 10° NW 19:40:46 10° WNW 19:41:13 10° WNW visible
